Weather History for La Junta, CO

Change the Weather History Date:

Tuesday, May 21, 2013

  Actual Average Record
Temperature  
Mean Temperature 63 °F 64 °F  
Max Temperature 77 °F 79 °F 99 °F (2005)
Min Temperature 48 °F 50 °F 35 °F (2001)
Degree Days  
Heating Degree Days 2 3  
Month to date heating degree days 139 110  
Since 1 July heating degree days 5070 5233  
Cooling Degree Days 0 2  
Month to date cooling degree days 58 29  
Year to date cooling degree days 62 38  
Growing Degree Days 12 (Base 50)    
Moisture  
Dew Point 38 °F    
Average Humidity 56    
Maximum Humidity 93    
Minimum Humidity 18    
Precipitation  
Precipitation T in 0.05 in 0.55 in (1959)
Month to date precipitation 0.22 1.07  
Year to date precipitation 0.67 3.79  
Sea Level Pressure  
Sea Level Pressure 29.84 in    
Wind  
Wind Speed 7 mph (WNW)    
Max Wind Speed 23 mph    
Max Gust Speed 28 mph    
Visibility 10 miles    
Events Rain    
T = Trace of Precipitation, MM = Missing Value Source: NWS Daily Summary

Daily Weather History Graph

Daily Weather History Graph

Search for Another Location

Airport:

Trip Planner

Search our weather history database for the weather conditions in past years. The results will help you decide how hot, cold, wet, or windy it might be!

Date:

Astronomy

May. 21, 2013 Rise Set
Actual Time 5:38 AM MDT 8:03 PM MDT
Civil Twilight 5:08 AM MDT 8:33 PM MDT
Nautical Twilight 4:31 AM MDT 9:10 PM MDT
Astronomical Twilight 3:50 AM MDT 9:51 PM MDT
Moon 4:22 PM MDT (5/21) 3:04 AM MDT (5/21)
Length of Visible Light 15h 24m
Length of Day
14h 24m
Waxing Gibbous, 84% of the Moon is Illuminated
May 21
Waxing Gibbous
May 24
Full
May 31
Last Quarter
Jun 8
New
Jun 16
First Quarter

Hourly Weather History & Observations

Time (MDT) Temp. Dew Point Humidity Pressure Visibility Wind Dir Wind Speed Gust Speed Precip Events Conditions
12:53 AM 51.1 °F 48.0 °F 89% 29.86 in 10.0 mi North 4.6 mph - N/A   Clear
1:53 AM 53.1 °F 46.0 °F 77% 29.86 in 10.0 mi West 5.8 mph - N/A   Overcast
2:53 AM 51.1 °F 46.9 °F 86% 29.88 in 10.0 mi SSW 8.1 mph - N/A   Overcast
3:53 AM 50.0 °F 46.0 °F 86% 29.88 in 10.0 mi West 9.2 mph - N/A   Mostly Cloudy
4:53 AM 48.9 °F 46.0 °F 90% 29.88 in 10.0 mi West 9.2 mph - N/A   Clear
5:53 AM 48.0 °F 45.0 °F 89% 29.92 in 10.0 mi West 6.9 mph - N/A   Partly Cloudy
6:53 AM 48.9 °F 45.0 °F 86% 29.98 in 10.0 mi WSW 5.8 mph - N/A   Mostly Cloudy
7:53 AM 54.0 °F 46.9 °F 77% 29.97 in 10.0 mi WNW 4.6 mph - N/A   Scattered Clouds
8:53 AM 59.0 °F 39.9 °F 49% 29.95 in 10.0 mi Calm Calm - N/A   Partly Cloudy
9:53 AM 62.1 °F 35.1 °F 37% 29.91 in 10.0 mi NNW 8.1 mph - N/A   Clear
10:53 AM 66.0 °F 34.0 °F 30% 29.86 in 10.0 mi NW 11.5 mph 17.3 mph N/A   Clear
11:53 AM 68.0 °F 32.0 °F 26% 29.82 in 10.0 mi WNW 11.5 mph 18.4 mph N/A   Clear
12:53 PM 72.0 °F 30.0 °F 21% 29.79 in 10.0 mi Variable 3.5 mph - N/A   Partly Cloudy
1:53 PM 72.0 °F 28.9 °F 20% 29.77 in 10.0 mi Variable 3.5 mph - N/A   Partly Cloudy
2:53 PM 73.0 °F 28.9 °F 20% 29.76 in 10.0 mi SSE 8.1 mph - N/A   Scattered Clouds
3:53 PM 75.0 °F 28.0 °F 18% 29.73 in 10.0 mi Variable 3.5 mph - N/A   Clear
4:53 PM 73.9 °F 28.0 °F 18% 29.74 in 10.0 mi East 6.9 mph - N/A   Scattered Clouds
5:53 PM 73.0 °F 28.0 °F 19% 29.74 in 10.0 mi Calm Calm - N/A   Mostly Cloudy
6:53 PM 72.0 °F 30.0 °F 21% 29.75 in 10.0 mi East 10.4 mph - N/A   Overcast
7:53 PM 66.0 °F 36.0 °F 33% 29.79 in 7.0 mi Variable 6.9 mph 27.6 mph 0.00 in Rain Light Rain
8:53 PM 60.1 °F 41.0 °F 49% 29.82 in 10.0 mi ENE 10.4 mph - 0.00 in   Clear
9:53 PM 59.0 °F 39.9 °F 49% 29.82 in 10.0 mi East 8.1 mph - N/A   Scattered Clouds
10:53 PM 60.1 °F 37.9 °F 44% 29.82 in 10.0 mi SSE 5.8 mph - N/A   Scattered Clouds
11:53 PM 57.9 °F 36.0 °F 44% 29.83 in 10.0 mi East 15.0 mph - N/A   Mostly Cloudy